Hourly Data Report for August 27, 2006

TORONTO CITY
ONTARIO

43°40'00.000" N
79°24'00.000" W
112.50 m
6158355
71508
XTO

Download Data

Hourly Data (August 2006)
Hourly Data Report for August 27, 2006
TIME
LST
Temp Definition
°C
Dew Point Definition
°C
Rel Hum Definition
%
Precip. Amount Definition
mm

Wind Dir Definition
10's deg

Wind Spd Definition
km/h
Visibility Definition
km
Stn Press Definition
kPa
Hmdx Definition


Wind Chill Definition


Weather Definition


00:00 20.7 20.0 96   LegendMM LegendMM   100.14 28   LegendNANA
01:00 20.8 20.1 96   LegendMM LegendMM   100.08 28   LegendNANA
02:00 20.5 20.0 97   LegendMM LegendMM   100.01 28   LegendNANA
03:00 20.6 20.3 98   LegendMM LegendMM   99.98 28   LegendNANA
04:00 20.5 20.3 99   LegendMM LegendMM   99.97 28   LegendNANA
05:00 20.5 20.3 99   LegendMM LegendMM   99.94 28   LegendNANA
06:00 20.6 20.4 99   LegendMM LegendMM   99.93 29   LegendNANA
07:00 20.7 20.5 99   LegendMM LegendMM   99.94 29   LegendNANA
08:00 21.1 20.9 99   LegendMM LegendMM   99.92 29   LegendNANA
09:00 21.2 20.9 98   LegendMM LegendMM   99.93 30   LegendNANA
10:00 22.1 21.6 97   LegendMM LegendMM   99.90 31   LegendNANA
11:00 22.3 21.7 96   LegendMM LegendMM   99.91 31   LegendNANA
12:00 23.3 22.7 96   LegendMM LegendMM   99.86 33   LegendNANA
13:00 23.6 22.5 94   LegendMM LegendMM   99.85 33   LegendNANA
14:00 24.2 22.8 92   LegendMM LegendMM   99.82 34   LegendNANA
15:00 26.2 23.0 83   LegendMM LegendMM   99.77 36   LegendNANA
16:00 25.9 22.5 82   LegendMM LegendMM   99.76 36   LegendNANA
17:00 24.7 22.6 88   LegendMM LegendMM   99.80 35   LegendNANA
18:00 25.0 22.1 84   LegendMM LegendMM   99.82 34   LegendNANA
19:00 24.2 20.7 81   LegendMM LegendMM   99.85 32   LegendNANA
20:00 23.2 19.4 79   LegendMM LegendMM   99.90 30   LegendNANA
21:00 22.1 19.0 83   LegendMM LegendMM   99.97 29   LegendNANA
22:00 21.5 18.8 85   LegendMM LegendMM   99.98 28   LegendNANA
23:00 20.8 18.1 85   LegendMM LegendMM   99.98 27   LegendNANA

Notes on Data Quality.

Legend

  • E = Estimated
  • M = Missing
  • NA = Not Available*
  • [empty] = Indicates an unobserved value
Date modified: